Location: *
(37.5724°S, 58.0067°E)
Time: 09:28:52
(UTC+00:00)

CZ-4 R/B - Visible Passes

Search period start: 17 January 2021 00:00
Search period end: 27 January 2021 00:00
Orbit: 533 x 597 km, 97.7° (Epoch: 16 January)

Date Brightness Start Highest point End Pass type
(mag) Time Alt. Az. Time Alt. Az. Time Alt. Az.
18 Jan 2.4 15:52:56 10° S 15:57:07 57° WSW 16:01:16 10° NNW visible
19 Jan 2.4 15:53:14 10° S 15:57:25 56° WSW 16:01:34 10° NNW visible
20 Jan 2.4 15:53:32 10° S 15:57:43 56° WSW 16:01:52 10° NNW visible
21 Jan 2.4 15:53:50 10° S 15:58:02 55° WSW 16:02:10 10° NNW visible
22 Jan 2.4 15:54:08 10° S 15:58:19 55° WSW 16:02:28 10° NNW visible
23 Jan 2.4 15:54:27 10° S 15:58:38 55° WSW 16:02:46 10° NNW visible
24 Jan 2.4 15:54:45 10° S 15:58:56 54° WSW 16:03:04 10° NNW visible
25 Jan 2.5 15:55:03 10° S 15:59:14 54° WSW 16:03:21 10° NNW visible
26 Jan 2.5 15:55:21 10° S 15:59:32 53° WSW 16:03:39 10° NNW visible
